Location: Altoona
(40.5167°N, 78.4000°W)
Time: 08:18:30
(UTC-05:00)

Daily predictions for brighter satellites

Satellite Brightness Start Highest point End
(mag) Time Altitude Azimuth Time Altitude Azimuth Time Altitude Azimuth
Cosmos 2237 Rocket 2.4 17:37:32 10° S 17:42:57 53° ESE 17:48:26 10° NNE
USA 215 4.0 17:37:22 10° E 17:43:10 35° NNE 17:48:58 10° NW
Cosmos 44 Rocket 3.5 17:38:09 10° SSW 17:43:17 84° WNW 17:48:22 10° NNE
NOSS 0 Rocket 4.0 17:38:44 10° SSW 17:44:54 67° ESE 17:51:04 10° NNE
COSMOS 2428 3.7 17:42:16 10° SW 17:47:46 48° WNW 17:53:18 10° NNE
BREEZE-M DEB (TANK) 3.3 17:39:46 10° NW 17:48:40 73° SW 17:51:53 10° SE
SL-16 R/B 3.3 17:45:34 10° SSE 17:50:04 25° ESE 17:54:36 10° NE
Cosmos 1300 3.0 17:46:35 10° N 17:50:17 44° E 17:53:58 10° SSE
Cosmos 1340 Rocket 3.9 17:47:15 10° SSE 17:50:28 24° E 17:53:41 10° NE
SL-14 R/B 3.6 17:47:55 10° SSE 17:51:40 44° E 17:55:28 10° NNE
Cosmos 1634 Rocket 4.0 17:45:41 10° N 17:51:52 70° E 17:58:00 10° SSE
Abrixas 2.5 17:49:57 10° SW 17:52:52 68° SE 17:55:46 10° ENE
Cosmos 1461 4.2 17:50:17 10° SSE 17:53:38 23° ESE 17:56:53 10° ENE
Cosmos 2058 3.5 17:50:37 10° SSE 17:54:21 35° E 17:58:07 10° NNE
Cosmos 1484 Rocket 3.0 17:51:30 10° SSE 17:55:17 48° ENE 17:59:09 10° N
CZ-4 R/B 4.4 17:55:02 10° SSE 17:59:11 82° ENE 18:03:20 10° N
Cosmos 304 Rocket 4.5 17:56:46 10° SSE 18:01:03 33° ESE 18:05:21 10° NE
Cosmos 2297 4.3 17:56:20 10° N 18:01:30 34° ENE 18:06:41 10° ESE
Lacrosse 5 4.1 18:04:17 10° NW 18:06:43 13° N 18:09:10 10° NNE
Cosmos 1844 Rocket 4.1 18:03:15 10° NW 18:08:35 44° WSW 18:13:53 10° S
Meteor 1-28 Rocket 3.5 18:11:45 10° NNE 18:15:19 43° E 18:18:52 10° S
OTV 4 2.9 18:13:25 10° WSW 18:15:43 20° SSW 18:18:01 10° SSE
Cosmos 1356 Rocket 4.3 18:12:45 10° SSE 18:16:04 26° E 18:19:10 11° NE
Cosmos 1125 Rocket 3.7 18:11:10 10° NNW 18:16:22 75° WSW 18:21:32 10° SSE
Transit 2A Rocket 4.4 18:12:20 10° NNW 18:16:40 69° ENE 18:20:58 10° SE
CZ-2C R/B 4.0 18:12:53 10° SSW 18:17:31 39° W 18:22:04 10° NNW
Meteor 2-10 4.0 18:12:28 10° N 18:17:33 65° E 18:22:45 10° SSE
CENTAUR R/B 4.0 18:12:15 10° WSW 18:17:49 33° NW 18:24:02 10° NNE
YAOGAN 1 3.8 18:14:51 10° S 18:19:00 45° W 18:23:10 10° NNW
Cosmos 1707 Rocket 4.2 18:15:50 10° NNE 18:19:46 33° ENE 18:23:41 10° SE
COSMO-SKYMED 1 2.5 18:15:31 10° NNE 18:19:52 77° ESE 18:24:12 10° S
Thor Agena Rocket 4.4 18:19:21 10° N 18:24:27 52° WNW 18:29:26 10° SW
Resurs 01 Rocket 2.9 18:26:17 18° E 18:27:27 20° ENE 18:30:43 10° NNE
Meteor 1-11 4.3 18:24:04 10° S 18:29:45 90° E 18:35:33 10° N
Lacrosse 5 rocket 1.1 18:26:01 10° NW 18:29:49 90° NW 18:33:51 10° SE
Cosmos 1666 Rocket 4.0 18:25:56 10° SSE 18:29:55 37° E 18:33:57 10° NNE
Cosmos 1980 4.3 18:25:37 10° SW 18:31:12 58° WNW 18:36:48 10° NNE
Timation 1 Rocket 4.3 18:26:54 10° NNW 18:32:55 68° ENE 18:38:54 10° SSE
METEOR-M 4.2 18:27:59 10° SSE 18:33:10 53° ENE 18:38:23 10° N
Cosmos 1184 Rocket 3.8 18:30:26 10° SSE 18:33:17 26° E 18:33:17 26° E
Cosmos 1538 Rocket 4.2 18:30:57 10° S 18:36:02 50° ESE 18:40:44 12° NNE
Cosmos 2151 3.9 18:32:17 10° SSW 18:36:22 50° W 18:40:28 10° N
Iridium 4 Rocket 3.9 18:35:29 10° SE 18:39:17 27° E 18:39:48 26° ENE
Cosmos 2279 Rocket 4.1 18:34:21 10° N 18:40:36 84° W 18:46:49 10° S
ALOS 2.8 18:42:14 10° SE 18:46:27 35° ENE 18:50:40 10° N
NOAA 12 4.0 18:44:03 10° SSE 18:49:17 81° ENE 18:54:34 10° N
Cosmos 2333 Rocket 3.7 18:45:30 10° WSW 18:50:36 34° WNW 18:55:45 10° N
Cosmos 2219 Rocket 4.1 18:47:15 10° WSW 18:51:59 27° NW 18:56:44 10° N
Cosmos 1626 2.0 18:50:17 10° S 18:54:01 83° E 18:56:50 17° N
Cosmos 1603 4.4 18:49:39 10° SSE 18:54:30 31° ESE 18:55:01 30° E
SJ-6B 2.8 18:54:14 10° SSE 18:58:18 82° ENE 19:02:26 10° N
Nadezhda 4 Rocket 3.9 18:53:42 10° S 18:59:55 75° E 19:06:14 10° N
Aureole 2 Rocket 4.4 18:56:51 10° SW 19:00:16 33° WNW 19:03:57 10° N
Cosmos 2242 Rocket 3.7 18:56:36 10° N 19:00:53 48° E 19:05:10 10° SSE
Cosmos 1703 3.8 18:58:34 10° SSW 19:02:23 57° W 19:06:15 10° N
Cosmos 2278 Rocket 3.8 18:57:49 10° NW 19:02:57 36° WSW 19:08:03 10° S
Cosmos 1455 2.0 19:02:42 10° N 19:06:31 86° E 19:10:19 10° S
Cosmos 1805 Rocket 4.3 19:04:04 10° SSW 19:08:25 53° W 19:12:48 10° N
SL-19 R/B 4.2 19:06:57 10° SSE 19:12:51 77° ENE 19:18:28 10° NNW
Lacrosse 4 Rocket 2.7 19:10:08 10° NNW 19:12:09 25° N 19:12:09 25° N
Cosmos 773 Rocket 3.8 19:12:09 10° SSW 19:17:18 80° ESE 19:19:20 38° NNE
FREGAT/IRIS 3.7 19:15:35 10° S 19:18:31 44° W 19:21:29 10° NNW
Cosmos 1092 Rocket 3.9 19:13:57 10° S 19:20:15 78° E 19:26:37 10° N
USA 215 3.2 19:21:36 25° SE 19:25:43 85° SW 19:32:20 10° NW
Sich 1 3.8 19:21:27 10° SSW 19:25:48 53° W 19:29:41 13° N
Cosmos 2237 Rocket 4.2 19:22:53 10° WSW 19:27:19 24° NW 19:31:49 10° N
Cosmos 2369 Rocket 3.9 19:27:30 10° N 19:29:27 19° N 19:29:27 19° N
Cosmos 1461 4.3 19:28:50 10° WSW 19:32:37 32° NW 19:33:37 29° NNW
Cosmos 1633 Rocket 3.9 19:29:00 10° SSW 19:33:17 50° W 19:36:07 20° N
SL-16 R/B 3.2 19:28:29 10° SW 19:33:52 45° WNW 19:37:58 17° N
Cosmos 2195 Rocket 4.3 19:39:23 10° S 19:45:29 80° E 19:46:13 69° NNE
Lacrosse 5 4.2 19:49:06 10° NNW 19:50:06 12° N 19:50:06 12° N
CZ-3A R/B 3.4 19:55:30 10° NW 19:59:58 59° SW 20:01:31 44° S
Spot 2 Rocket 4.4 19:57:52 10° S 20:02:41 45° W 20:07:32 10° NNW
Resurs 01 Rocket 3.0 20:03:50 37° W 20:03:50 37° W 20:07:49 10° NNW
CZ-4C R/B 4.5 20:00:28 10° NNW 20:02:59 18° N 20:02:59 18° N
USA 229 DEB 4.0 20:04:20 10° SW 20:11:06 60° NW 20:12:13 54° NNW
USA 229 4.0 20:04:25 10° SW 20:11:12 61° NW 20:12:17 54° NNW
ALOS 4.5 20:20:15 10° SSW 20:23:56 23° W 20:27:39 10° NW
